Date String (YYYY-MM-DD hh:mm:ss) UTC,Instrument flags,absolute air pressure of the measurement (hPa),sample flow rate (lpm),inlet stack bypass flow (lpm),air temperature of the measurement (°C),ambient temperature measured by the external sensor (°C),aerosol sample conditioner tube jacket temperature (°C),OPC LED temperature (°C),internal box temperature (°C),relative humidity of the measurement (%),span deviation,mass concentration of particles derived from Lorenz-Mie calculation of OPC scattering (μg/m³),mass concentration of particles derived from Lorenz-Mie calculation of OPC scattering (μg/m³),mass concentration of particles derived from Lorenz-Mie calculation of OPC scattering (μg/m³)
DateTimeUTC,F1_M11,P_M11,Q1_M11,Q2_M11,T1_M11,T2_M11,T3_M11,T4_M11,T5_M11,U1_M11,ZSPAN_M11,X0_M11,X2_M11,X1_M11
2024-02-18 14:00:00,SystemResetWarning,0826.3,5.01,000.00,018.5,017.9,000.0,026.9,020.0,09.1,0000.0,0001.85,0000.82,0000.61
2024-02-18 14:01:00,SystemResetWarning,0826.2,5.00,000.00,018.5,017.8,000.0,026.9,020.0,09.0,0000.0,0001.91,0000.86,0000.66
2024-02-18 14:02:00,SystemResetWarning,0826.2,5.00,000.00,018.4,017.8,000.0,026.9,020.0,08.9,0000.0,0001.90,0000.92,0000.71
2024-02-18 14:03:00,SystemResetWarning,0826.2,5.00,000.00,018.4,017.7,000.0,026.9,020.0,08.8,0000.0,0001.96,0000.97,0000.76
2024-02-18 14:04:00,SystemResetWarning,0826.2,5.00,000.00,018.4,017.6,000.0,026.9,020.0,08.7,0000.0,0002.07,0001.05,0000.81
2024-02-18 14:05:00,SystemResetWarning,0826.3,4.99,000.00,018.4,017.6,000.0,026.9,020.0,08.7,0000.0,0002.16,0001.10,0000.84
2024-02-18 14:06:00,SystemResetWarning,0826.3,4.99,000.00,018.4,017.6,000.0,026.9,020.0,08.8,0000.0,0002.00,0001.11,0000.87
2024-02-18 14:07:00,SystemResetWarning,0826.3,5.02,000.00,018.4,018.0,000.0,027.0,020.3,08.5,0000.0,0001.88,0001.13,0000.89
2024-02-18 14:08:00,SystemResetWarning,0826.3,4.99,000.00,018.6,018.9,000.0,027.1,020.9,08.3,0000.0,0001.88,0001.14,0000.90
2024-02-18 14:09:00,SystemResetWarning,0826.3,4.99,000.00,018.8,019.2,000.0,027.1,021.0,08.0,0000.0,0001.87,0001.15,0000.92
2024-02-18 14:10:00,SystemResetWarning,0826.2,5.00,000.00,018.8,019.0,000.0,027.1,020.8,07.9,0000.0,0001.76,0001.13,0000.92
2024-02-18 14:11:00,SystemResetWarning,0826.3,5.01,000.00,018.8,018.8,000.0,027.0,020.5,07.9,0000.0,0001.62,0001.12,0000.90
2024-02-18 14:12:00,SystemResetWarning,0826.3,5.00,000.00,018.7,018.6,000.0,027.0,020.3,08.1,0000.0,0001.66,0001.13,0000.88
2024-02-18 14:13:00,SystemResetWarning,0826.4,5.00,000.00,018.7,018.4,000.0,027.0,020.1,08.2,0000.0,0001.64,0001.11,0000.86
2024-02-18 14:14:00,SystemResetWarning,0826.3,5.00,000.00,018.6,018.2,000.0,027.0,020.0,08.3,0000.0,0002.84,0001.08,0000.83
2024-02-18 14:15:00,SystemResetWarning,0826.3,5.00,000.00,018.5,018.0,000.0,027.0,020.0,08.4,0000.0,0002.98,0001.05,0000.80
2024-02-18 14:16:00,SystemResetWarning,0826.3,5.00,000.00,018.5,017.9,000.0,027.0,020.0,08.4,0000.0,0002.89,0001.00,0000.78
2024-02-18 14:17:00,SystemResetWarning,0826.3,4.99,000.00,018.5,017.8,000.0,027.0,020.0,08.0,0000.0,0002.86,0000.98,0000.76
2024-02-18 14:18:00,SystemResetWarning,0826.3,5.00,000.00,018.4,017.7,000.0,027.0,020.0,07.7,0000.0,0002.68,0000.92,0000.74
2024-02-18 14:19:00,SystemResetWarning,0826.3,5.01,000.00,018.4,017.7,000.0,027.0,020.0,07.9,0000.0,0002.59,0000.87,0000.72
2024-02-18 14:20:00,SystemResetWarning,0826.3,5.01,000.00,018.4,017.6,000.0,027.0,020.0,08.8,0000.0,0002.52,0000.82,0000.69
2024-02-18 14:21:00,SystemResetWarning,0826.3,4.99,000.00,018.4,017.6,000.0,027.0,020.0,08.5,0000.0,0002.49,0000.81,0000.67
2024-02-18 14:22:00,SystemResetWarning,0826.4,4.98,000.00,018.4,017.6,000.0,027.0,020.0,08.4,0000.0,0002.47,0000.78,0000.66
2024-02-18 14:23:00,SystemResetWarning,0826.3,5.00,000.00,018.3,017.5,000.0,027.0,020.0,07.9,0000.0,0002.45,0000.77,0000.66
2024-02-18 14:24:00,SystemResetWarning,0826.3,5.02,000.00,018.4,018.0,000.0,027.0,020.4,07.7,0000.0,0002.42,0000.76,0000.66
2024-02-18 14:25:00,SystemResetWarning,0826.4,5.00,000.00,018.7,019.1,000.0,027.1,021.0,07.7,0000.0,0001.16,0000.75,0000.65
2024-02-18 14:26:00,SystemResetWarning,0826.4,4.99,000.00,018.9,019.5,000.0,027.2,021.2,07.9,0000.0,0001.11,0000.75,0000.64
2024-02-18 14:27:00,SystemResetWarning,0826.4,5.00,000.00,018.9,019.3,000.0,027.1,020.9,07.7,0000.0,0001.12,0000.75,0000.63
2024-02-18 14:28:00,SystemResetWarning,0826.3,5.00,000.00,018.9,019.1,000.0,027.1,020.7,07.6,0000.0,0001.11,0000.74,0000.62
2024-02-18 14:29:00,SystemResetWarning,0826.3,4.99,000.00,018.8,018.9,000.0,027.1,020.5,07.5,0000.0,0001.10,0000.74,0000.62
2024-02-18 14:30:00,SystemResetWarning,0826.2,5.00,000.00,018.8,018.7,000.0,027.0,020.4,07.5,0000.0,0001.58,0000.74,0000.61
2024-02-18 14:31:00,SystemResetWarning,0826.2,5.00,000.00,018.7,018.5,000.0,027.0,020.3,07.6,0000.0,0001.81,0000.75,0000.60
2024-02-18 14:32:00,SystemResetWarning,0826.2,5.00,000.00,018.7,018.3,000.0,027.0,020.2,07.5,0000.0,0001.79,0000.73,0000.59
2024-02-18 14:33:00,SystemResetWarning,0826.2,5.00,000.00,018.7,018.2,000.0,027.0,020.2,07.3,0000.0,0001.73,0000.71,0000.57
2024-02-18 14:34:00,SystemResetWarning,0826.3,5.00,000.00,018.6,018.1,000.0,027.0,020.2,07.3,0000.0,0001.69,0000.68,0000.56
2024-02-18 14:35:00,SystemResetWarning,0826.3,4.99,000.00,018.6,018.0,000.0,027.0,020.1,07.6,0000.0,0001.77,0000.68,0000.54
2024-02-18 14:36:00,SystemResetWarning,0826.3,5.00,000.00,018.6,018.0,000.0,027.0,020.1,07.9,0000.0,0002.01,0000.69,0000.53
2024-02-18 14:37:00,SystemResetWarning,0826.3,5.01,000.00,018.5,017.9,000.0,027.0,020.0,07.9,0000.0,0003.12,0000.69,0000.53
2024-02-18 14:38:00,SystemResetWarning,0826.2,5.00,000.00,018.5,017.8,000.0,027.0,020.0,08.0,0000.0,0003.11,0000.70,0000.54
2024-02-18 14:39:00,SystemResetWarning,0826.3,5.00,000.00,018.5,017.8,000.0,026.9,020.0,08.7,0000.0,0003.13,0000.70,0000.55
2024-02-18 14:40:00,SystemResetWarning,0826.3,5.00,000.00,018.4,017.8,000.0,026.9,020.0,09.0,0000.0,0003.16,0000.71,0000.55
2024-02-18 14:41:00,SystemResetWarning,0826.3,5.00,000.00,018.4,017.8,000.0,026.9,020.0,08.9,0000.0,0002.78,0000.71,0000.55
2024-02-18 14:42:00,SystemResetWarning,0826.3,5.00,000.00,018.4,017.7,000.0,026.9,020.0,08.7,0000.0,0002.50,0000.71,0000.56
2024-02-18 14:43:00,SystemResetWarning,0826.3,5.00,000.00,018.4,017.7,000.0,026.9,020.0,09.0,0000.0,0002.51,0000.73,0000.58
2024-02-18 14:44:00,SystemResetWarning,0826.3,5.00,000.00,018.4,017.7,000.0,026.9,020.0,08.8,0000.0,0002.59,0000.77,0000.60
2024-02-18 14:45:00,SystemResetWarning,0826.3,5.01,000.00,018.4,017.7,000.0,026.9,020.0,08.4,0000.0,0002.61,0000.79,0000.62
2024-02-18 14:46:00,SystemResetWarning,0826.3,5.00,000.00,018.4,017.7,000.0,026.9,020.0,08.1,0000.0,0002.54,0000.80,0000.65
2024-02-18 14:47:00,SystemResetWarning,0826.3,5.00,000.00,018.3,017.7,000.0,026.9,020.0,08.0,0000.0,0002.29,0000.81,0000.67
2024-02-18 14:48:00,SystemResetWarning,0826.2,5.00,000.00,018.3,017.7,000.0,026.9,020.0,08.0,0000.0,0001.19,0000.84,0000.69
2024-02-18 14:49:00,SystemResetWarning,0826.3,5.00,000.00,018.3,017.7,000.0,026.9,020.0,08.0,0000.0,0001.20,0000.84,0000.71
2024-02-18 14:50:00,SystemResetWarning,0826.2,5.00,000.00,018.3,017.7,000.0,026.9,020.0,07.9,0000.0,0001.25,0000.86,0000.73
2024-02-18 14:51:00,SystemResetWarning,0826.2,5.00,000.00,018.3,017.7,000.0,026.9,020.0,08.0,0000.0,0001.39,0000.89,0000.75
2024-02-18 14:52:00,SystemResetWarning,0826.2,5.00,000.00,018.3,017.7,000.0,026.8,020.0,08.1,0000.0,0001.46,0000.93,0000.78
2024-02-18 14:53:00,SystemResetWarning,0826.2,5.00,000.00,018.3,017.7,000.0,026.8,020.0,08.2,0000.0,0001.57,0000.94,0000.80
2024-02-18 14:54:00,SystemResetWarning,0826.3,5.00,000.00,018.3,017.7,000.0,026.8,020.0,08.5,0000.0,0002.68,0000.94,0000.80
2024-02-18 14:55:00,SystemResetWarning,0826.2,5.00,000.00,018.3,017.7,000.0,026.8,020.0,09.4,0000.0,0002.68,0000.93,0000.79
2024-02-18 14:56:00,SystemResetWarning,0826.3,5.01,000.00,018.3,017.7,000.0,026.8,020.0,09.8,0000.0,0002.70,0000.93,0000.78
2024-02-18 14:57:00,SystemResetWarning,0826.3,5.00,000.00,018.3,017.7,000.0,026.8,020.0,09.6,0000.0,0002.69,0000.93,0000.77
2024-02-18 14:58:00,SystemResetWarning,0826.4,5.00,000.00,018.3,017.7,000.0,026.8,020.0,10.0,0000.0,0002.65,0000.91,0000.76
2024-02-18 14:59:00,SystemResetWarning,0826.4,5.00,000.00,018.3,017.8,000.0,026.8,020.0,11.3,0000.0,0002.64,0000.89,0000.75
